TimeMST,TemperatureF,Dew PointF,Humidity,Sea Level PressureIn,VisibilityMPH,Wind Direction,Wind SpeedMPH,Gust SpeedMPH,PrecipitationIn,Events,Conditions,WindDirDegrees,DateUTC
12:53 AM,36.0,23.0,59,29.98,10.0,Variable,4.6,-,N/A,,Mostly Cloudy,0,2013-02-08 07:53:00
1:53 AM,34.0,26.1,73,29.95,10.0,Calm,Calm,-,N/A,,Overcast,0,2013-02-08 08:53:00
2:53 AM,33.1,27.0,78,29.94,10.0,Calm,Calm,-,N/A,,Overcast,0,2013-02-08 09:53:00
3:53 AM,34.0,26.1,73,29.92,10.0,West,3.5,-,N/A,,Overcast,270,2013-02-08 10:53:00
4:53 AM,34.0,26.1,73,29.88,10.0,SE,4.6,-,N/A,,Overcast,140,2013-02-08 11:53:00
5:53 AM,34.0,25.0,70,29.87,10.0,ESE,8.1,-,N/A,,Overcast,120,2013-02-08 12:53:00
6:53 AM,33.1,24.1,70,29.86,10.0,ESE,12.7,-,N/A,,Scattered Clouds,120,2013-02-08 13:53:00
7:53 AM,32.0,24.1,73,29.86,10.0,ESE,4.6,-,N/A,,Clear,120,2013-02-08 14:53:00
8:53 AM,39.2,23.0,52,29.79,10.0,ESE,5.8,-,N/A,,Overcast,110,2013-02-08 15:53:00
9:53 AM,44.1,25.0,47,29.78,10.0,Calm,Calm,-,N/A,,Partly Cloudy,0,2013-02-08 16:53:00
10:53 AM,45.0,27.0,49,29.76,10.0,East,5.8,-,N/A,,Overcast,90,2013-02-08 17:53:00
11:53 AM,51.1,27.0,39,29.70,10.0,South,19.6,29.9,N/A,,Partly Cloudy,180,2013-02-08 18:53:00
12:53 PM,39.9,32.0,73,29.68,10.0,NW,13.8,-,N/A,,Mostly Cloudy,320,2013-02-08 19:53:00
1:28 PM,50.0,26.6,40,29.63,10.0,SSW,20.7,27.6,N/A,,Mostly Cloudy,200,2013-02-08 20:28:00
1:53 PM,41.0,30.0,65,29.66,10.0,West,27.6,40.3,N/A,,Overcast,280,2013-02-08 20:53:00
2:00 PM,39.2,30.2,70,29.66,10.0,WNW,26.5,33.4,0.00,Rain,Light Rain,290,2013-02-08 21:00:00
2:53 PM,37.9,34.0,86,29.64,10.0,NW,10.4,-,0.00,,Mostly Cloudy,320,2013-02-08 21:53:00
3:53 PM,37.0,33.1,86,29.63,10.0,NW,13.8,-,N/A,,Partly Cloudy,310,2013-02-08 22:53:00
4:53 PM,37.9,33.1,83,29.63,10.0,West,10.4,-,N/A,,Overcast,280,2013-02-08 23:53:00
5:53 PM,37.9,33.1,83,29.65,10.0,West,10.4,-,N/A,,Overcast,270,2013-02-09 00:53:00
6:53 PM,37.0,32.0,82,29.68,10.0,WNW,13.8,-,N/A,,Overcast,300,2013-02-09 01:53:00
7:53 PM,36.0,32.0,86,29.70,10.0,NW,6.9,-,N/A,,Overcast,320,2013-02-09 02:53:00
8:53 PM,37.0,33.1,86,29.70,10.0,ESE,4.6,-,N/A,,Overcast,110,2013-02-09 03:53:00
9:06 PM,35.6,33.8,93,29.68,10.0,Variable,4.6,-,0.01,Rain,Light Rain,0,2013-02-09 04:06:00
9:14 PM,37.4,30.2,75,29.69,10.0,Variable,4.6,-,0.01,Rain,Light Rain,0,2013-02-09 04:14:00
9:53 PM,37.0,32.0,82,29.68,9.0,South,6.9,-,0.01,Rain,Light Rain,170,2013-02-09 04:53:00
10:53 PM,33.1,30.0,89,29.69,10.0,ESE,5.8,-,0.00,,Scattered Clouds,110,2013-02-09 05:53:00
11:53 PM,32.0,30.9,96,29.67,10.0,Calm,Calm,-,N/A,,Partly Cloudy,0,2013-02-09 06:53:00